| time (UTC) | temp F | wind direction | speed knots | gust knots | rain 1hr in | rain 24hr in | rain mn in | humidity % | barometer mb |
| 20260504012031 | 61 | 250 | 4.3 | 0.0 | 0.00 | 0.00 | 0.00 | 53 | 1012.4 |
| 20260504011531 | 61 | 282 | 6.1 | 0.0 | 0.00 | 0.00 | 0.00 | 52 | 1012.4 |
| 20260504011031 | 61 | 237 | 4.3 | 0.0 | 0.00 | 0.00 | 0.00 | 53 | 1012.5 |
| 20260504010533 | 60 | 197 | 5.2 | 0.0 | 0.00 | 0.00 | 0.00 | 53 | 1012.6 |
| 20260504010032 | 60 | 197 | 4.3 | 0.0 | 0.00 | 0.00 | 0.00 | 53 | 1012.5 |
| 20260504005532 | 60 | 190 | 4.3 | 0.0 | 0.00 | 0.00 | 0.00 | 53 | 1012.6 |
| 20260504005031 | 60 | 207 | 4.3 | 0.0 | 0.00 | 0.00 | 0.00 | 53 | 1012.5 |
| 20260504004532 | 61 | 195 | 4.3 | 0.0 | 0.00 | 0.00 | 0.00 | 53 | 1012.3 |
| 20260504004032 | 61 | 202 | 4.3 | 0.0 | 0.00 | 0.00 | 0.00 | 53 | 1012.4 |
| 20260504003531 | 61 | 195 | 4.3 | 0.0 | 0.00 | 0.00 | 0.00 | 52 | 1012.5 |
| 20260504003032 | 61 | 205 | 5.2 | 0.0 | 0.00 | 0.00 | 0.00 | 52 | 1012.4 |
| 20260504002531 | 61 | 205 | 5.2 | 0.0 | 0.00 | 0.00 | 0.00 | 52 | 1012.4 |
| 20260504002031 | 61 | 230 | 4.3 | 0.0 | 0.00 | 0.00 | 0.00 | 52 | 1012.4 |
| 20260504001531 | 61 | 195 | 4.3 | 0.0 | 0.00 | 0.00 | 0.00 | 52 | 1012.4 |
| 20260504001031 | 61 | 200 | 4.3 | 0.0 | 0.00 | 0.00 | 0.00 | 52 | 1012.3 |
| 20260504000531 | 61 | 190 | 4.3 | 0.0 | 0.00 | 0.00 | 0.00 | 52 | 1012.2 |
| 20260504000032 | 61 | 230 | 4.3 | 0.0 | 0.00 | 0.00 | 0.00 | 52 | 1012.2 |
| 20260503235531 | 61 | 195 | 4.3 | 0.0 | 0.00 | 0.00 | 0.00 | 51 | 1012.1 |
| 20260503235032 | 62 | 175 | 4.3 | 0.0 | 0.00 | 0.00 | 0.00 | 51 | 1012.1 |
| 20260503234532 | 62 | 202 | 4.3 | 0.0 | 0.00 | 0.00 | 0.00 | 51 | 1012.0 |
| 20260503234031 | 62 | 200 | 4.3 | 0.0 | 0.00 | 0.00 | 0.00 | 50 | 1012.1 |
| 20260503233531 | 62 | 180 | 3.5 | 0.0 | 0.00 | 0.00 | 0.00 | 50 | 1012.1 |
| 20260503233031 | 62 | 200 | 3.5 | 0.0 | 0.00 | 0.00 | 0.00 | 50 | 1012.1 |
| 20260503232532 | 63 | 235 | 2.6 | 0.0 | 0.00 | 0.00 | 0.00 | 49 | 1012.2 |
| 20260503232032 | 64 | 265 | 5.2 | 0.0 | 0.00 | 0.00 | 0.00 | 48 | 1012.1 |
| 20260503231532 | 64 | 265 | 5.2 | 0.0 | 0.00 | 0.00 | 0.00 | 47 | 1012.1 |
| 20260503231031 | 64 | 277 | 5.2 | 0.0 | 0.00 | 0.00 | 0.00 | 47 | 1012.0 |
| 20260503230532 | 64 | 267 | 4.3 | 0.0 | 0.00 | 0.00 | 0.00 | 47 | 1012.0 |
| 20260503230031 | 64 | 302 | 5.2 | 0.0 | 0.00 | 0.00 | 0.00 | 47 | 1012.0 |
| 20260503225532 | 64 | 287 | 6.1 | 0.0 | 0.00 | 0.00 | 0.00 | 47 | 1011.9 |
| 20260503225031 | 64 | 240 | 4.3 | 0.0 | 0.00 | 0.00 | 0.00 | 47 | 1011.9 |
| 20260503224531 | 65 | 267 | 7.8 | 0.0 | 0.00 | 0.00 | 0.00 | 46 | 1011.9 |
| 20260503224032 | 65 | 282 | 7.0 | 0.0 | 0.00 | 0.00 | 0.00 | 45 | 1011.8 |
| 20260503223532 | 65 | 267 | 7.0 | 0.0 | 0.00 | 0.00 | 0.00 | 45 | 1011.8 |
| 20260503223031 | 64 | 285 | 8.7 | 0.0 | 0.00 | 0.00 | 0.00 | 45 | 1011.7 |
| 20260503222531 | 64 | 262 | 4.3 | 0.0 | 0.00 | 0.00 | 0.00 | 45 | 1011.7 |
| 20260503222031 | 64 | 262 | 3.5 | 0.0 | 0.00 | 0.00 | 0.00 | 44 | 1011.6 |
| 20260503221531 | 65 | 260 | 5.2 | 0.0 | 0.00 | 0.00 | 0.00 | 43 | 1011.6 |
| 20260503221032 | 65 | 260 | 6.1 | 0.0 | 0.00 | 0.00 | 0.00 | 43 | 1011.5 |
| 20260503220532 | 65 | 225 | 5.2 | 0.0 | 0.00 | 0.00 | 0.00 | 43 | 1011.5 |
| 20260503220032 | 66 | 210 | 7.0 | 0.0 | 0.00 | 0.00 | 0.00 | 41 | 1011.4 |
| 20260503215532 | 65 | 245 | 7.8 | 0.0 | 0.00 | 0.00 | 0.00 | 42 | 1011.4 |
| 20260503215032 | 66 | 247 | 6.1 | 0.0 | 0.00 | 0.00 | 0.00 | 41 | 1011.4 |
| 20260503214531 | 66 | 255 | 5.2 | 0.0 | 0.00 | 0.00 | 0.00 | 41 | 1011.4 |
| 20260503214032 | 66 | 315 | 6.1 | 0.0 | 0.00 | 0.00 | 0.00 | 40 | 1011.3 |
| 20260503213532 | 67 | 267 | 7.0 | 0.0 | 0.00 | 0.00 | 0.00 | 40 | 1011.3 |
| 20260503213032 | 67 | 267 | 7.0 | 0.0 | 0.00 | 0.00 | 0.00 | 40 | 1011.2 |
| 20260503212532 | 67 | 315 | 5.2 | 0.0 | 0.00 | 0.00 | 0.00 | 39 | 1011.0 |
| 20260503212032 | 67 | 95 | 3.5 | 0.0 | 0.00 | 0.00 | 0.00 | 39 | 1010.9 |
| 20260503211532 | 68 | 282 | 5.2 | 0.0 | 0.00 | 0.00 | 0.00 | 39 | 1010.9 |
| 20260503211032 | 68 | 135 | 7.0 | 0.0 | 0.00 | 0.00 | 0.00 | 37 | 1010.9 |
| 20260503210531 | 69 | 145 | 9.6 | 0.0 | 0.00 | 0.00 | 0.00 | 37 | 1010.8 |
| 20260503210032 | 68 | 145 | 11.3 | 0.0 | 0.00 | 0.00 | 0.00 | 37 | 1010.6 |
| 20260503205531 | 68 | 145 | 11.3 | 0.0 | 0.00 | 0.00 | 0.00 | 37 | 1010.5 |
| 20260503205032 | 68 | 145 | 9.6 | 0.0 | 0.00 | 0.00 | 0.00 | 37 | 1010.5 |
| 20260503204531 | 68 | 132 | 9.6 | 0.0 | 0.00 | 0.00 | 0.00 | 37 | 1010.6 |
| 20260503204032 | 68 | 135 | 8.7 | 0.0 | 0.00 | 0.00 | 0.00 | 37 | 1010.6 |
| 20260503203532 | 68 | 140 | 8.7 | 0.0 | 0.00 | 0.00 | 0.00 | 37 | 1010.6 |
| 20260503203032 | 68 | 147 | 8.7 | 0.0 | 0.00 | 0.00 | 0.00 | 37 | 1010.6 |
| 20260503202532 | 68 | 135 | 8.7 | 0.0 | 0.00 | 0.00 | 0.00 | 37 | 1010.5 |
| 20260503202032 | 68 | 140 | 7.8 | 0.0 | 0.00 | 0.00 | 0.00 | 37 | 1010.6 |
| 20260503201532 | 68 | 140 | 9.6 | 0.0 | 0.00 | 0.00 | 0.00 | 37 | 1010.6 |
| 20260503201032 | 68 | 137 | 8.7 | 0.0 | 0.00 | 0.00 | 0.00 | 37 | 1010.7 |
| 20260503200531 | 68 | 137 | 7.8 | 0.0 | 0.00 | 0.00 | 0.00 | 37 | 1010.6 |
| 20260503200032 | 68 | 137 | 7.0 | 0.0 | 0.00 | 0.00 | 0.00 | 37 | 1010.7 |
| 20260503195532 | 68 | 125 | 5.2 | 0.0 | 0.00 | 0.00 | 0.00 | 37 | 1010.8 |
| 20260503195031 | 69 | 130 | 7.0 | 0.0 | 0.00 | 0.00 | 0.00 | 36 | 1010.8 |
| 20260503194532 | 69 | 127 | 6.1 | 0.0 | 0.00 | 0.00 | 0.00 | 35 | 1010.8 |
| 20260503194031 | 69 | 135 | 7.0 | 0.0 | 0.00 | 0.00 | 0.00 | 35 | 1010.8 |
| 20260503193531 | 69 | 127 | 7.8 | 0.0 | 0.00 | 0.00 | 0.00 | 34 | 1010.9 |
| 20260503193032 | 70 | 142 | 8.7 | 0.0 | 0.00 | 0.00 | 0.00 | 34 | 1010.9 |
| 20260503192531 | 70 | 135 | 7.0 | 0.0 | 0.00 | 0.00 | 0.00 | 34 | 1010.9 |
| 20260503192032 | 70 | 125 | 7.8 | 0.0 | 0.00 | 0.00 | 0.00 | 34 | 1010.9 |
| 20260503191531 | 70 | 125 | 7.8 | 0.0 | 0.00 | 0.00 | 0.00 | 34 | 1010.9 |
| 20260503191031 | 70 | 132 | 7.0 | 0.0 | 0.00 | 0.00 | 0.00 | 34 | 1011.0 |
| 20260503190531 | 70 | 132 | 7.0 | 0.0 | 0.00 | 0.00 | 0.00 | 34 | 1011.0 |
| 20260503190032 | 70 | 132 | 7.8 | 0.0 | 0.00 | 0.00 | 0.00 | 34 | 1011.0 |
| 20260503185532 | 70 | 130 | 6.1 | 0.0 | 0.00 | 0.00 | 0.00 | 34 | 1011.0 |
| 20260503185031 | 70 | 137 | 7.8 | 0.0 | 0.00 | 0.00 | 0.00 | 34 | 1011.0 |
| 20260503184532 | 70 | 130 | 7.0 | 0.0 | 0.00 | 0.00 | 0.00 | 34 | 1011.0 |
| 20260503184031 | 70 | 132 | 7.8 | 0.0 | 0.00 | 0.00 | 0.00 | 34 | 1010.9 |
| 20260503183531 | 70 | 130 | 7.0 | 0.0 | 0.00 | 0.00 | 0.00 | 34 | 1010.9 |
| 20260503183033 | 70 | 130 | 7.0 | 0.0 | 0.00 | 0.00 | 0.00 | 34 | 1011.0 |
| 20260503182531 | 70 | 135 | 6.1 | 0.0 | 0.00 | 0.00 | 0.00 | 34 | 1010.9 |
| 20260503182032 | 70 | 132 | 6.1 | 0.0 | 0.00 | 0.00 | 0.00 | 34 | 1010.9 |
| 20260503181532 | 71 | 140 | 7.0 | 0.0 | 0.00 | 0.00 | 0.00 | 34 | 1010.9 |
| 20260503181032 | 71 | 135 | 7.0 | 0.0 | 0.00 | 0.00 | 0.00 | 34 | 1010.9 |
| 20260503180532 | 71 | 145 | 7.0 | 0.0 | 0.00 | 0.00 | 0.00 | 34 | 1010.9 |
| 20260503180032 | 71 | 137 | 7.8 | 0.0 | 0.00 | 0.00 | 0.00 | 34 | 1011.0 |
| 20260503175532 | 71 | 135 | 7.0 | 0.0 | 0.00 | 0.00 | 0.00 | 34 | 1010.9 |
| 20260503175031 | 71 | 132 | 6.1 | 0.0 | 0.00 | 0.00 | 0.00 | 34 | 1011.0 |
| 20260503174531 | 71 | 130 | 6.1 | 0.0 | 0.00 | 0.00 | 0.00 | 35 | 1011.0 |
| 20260503174031 | 71 | 140 | 5.2 | 0.0 | 0.00 | 0.00 | 0.00 | 35 | 1011.0 |
| 20260503173532 | 71 | 125 | 6.1 | 0.0 | 0.00 | 0.00 | 0.00 | 35 | 1011.1 |
| 20260503173031 | 71 | 132 | 5.2 | 0.0 | 0.00 | 0.00 | 0.00 | 35 | 1011.1 |
| 20260503172532 | 71 | 132 | 5.2 | 0.0 | 0.00 | 0.00 | 0.00 | 36 | 1011.2 |
| 20260503172031 | 71 | 135 | 5.2 | 0.0 | 0.00 | 0.00 | 0.00 | 35 | 1011.2 |
| 20260503171532 | 72 | 125 | 5.2 | 0.0 | 0.00 | 0.00 | 0.00 | 35 | 1011.2 |
| 20260503171031 | 72 | 135 | 6.1 | 0.0 | 0.00 | 0.00 | 0.00 | 36 | 1011.2 |
| 20260503170532 | 72 | 135 | 6.1 | 0.0 | 0.00 | 0.00 | 0.00 | 36 | 1011.2 |
| 20260503150532 | 80 | 185 | 7.0 | 0.0 | 0.00 | 0.00 | 0.00 | 25 | 1012.2 |
| 20260503131031 | 80 | 195 | 10.4 | 0.0 | 0.00 | 0.00 | 0.00 | 24 | 1013.2 |
| 20260503130531 | 80 | 210 | 10.4 | 0.0 | 0.00 | 0.00 | 0.00 | 24 | 1013.2 |
| 20260503110531 | 80 | 192 | 12.2 | 0.0 | 0.00 | 0.00 | 0.00 | 25 | 1014.1 |
| 20260503081532 | 77 | 115 | 5.2 | 0.0 | 0.00 | 0.00 | 0.00 | 38 | 1014.8 |
| 20260503081031 | 76 | 127 | 5.2 | 0.0 | 0.00 | 0.00 | 0.00 | 38 | 1014.8 |
| 20260503080531 | 76 | 185 | 7.0 | 0.0 | 0.00 | 0.00 | 0.00 | 32 | 1014.8 |
| 20260503072532 | 73 | 192 | 8.7 | 0.0 | 0.00 | 0.00 | 0.00 | 35 | 1014.8 |
| 20260503072031 | 73 | 190 | 7.8 | 0.0 | 0.00 | 0.00 | 0.00 | 34 | 1014.7 |
| 20260503071531 | 73 | 187 | 7.8 | 0.0 | 0.00 | 0.00 | 0.00 | 35 | 1014.7 |
| 20260503071032 | 72 | 190 | 7.8 | 0.0 | 0.00 | 0.00 | 0.00 | 36 | 1014.7 |
| 20260503070531 | 71 | 200 | 7.8 | 0.0 | 0.00 | 0.00 | 0.00 | 36 | 1014.7 |
| 20260503055031 | 64 | 190 | 8.7 | 0.0 | 0.00 | 0.00 | 0.00 | 43 | 1014.7 |
| 20260503054531 | 64 | 187 | 8.7 | 0.0 | 0.00 | 0.00 | 0.00 | 42 | 1014.6 |
| 20260503054032 | 63 | 190 | 7.8 | 0.0 | 0.00 | 0.00 | 0.00 | 43 | 1014.7 |
| 20260503053531 | 62 | 190 | 7.8 | 0.0 | 0.00 | 0.00 | 0.00 | 43 | 1014.6 |
| 20260503053031 | 61 | 187 | 7.8 | 0.0 | 0.00 | 0.00 | 0.00 | 44 | 1014.6 |
| 20260503052532 | 61 | 187 | 7.8 | 0.0 | 0.00 | 0.00 | 0.00 | 44 | 1014.6 |
| 20260503052032 | 61 | 187 | 7.0 | 0.0 | 0.00 | 0.00 | 0.00 | 44 | 1014.5 |
| 20260503051531 | 61 | 190 | 7.8 | 0.0 | 0.00 | 0.00 | 0.00 | 43 | 1014.6 |
| 20260503051031 | 61 | 195 | 8.7 | 0.0 | 0.00 | 0.00 | 0.00 | 42 | 1014.6 |
| 20260503050531 | 60 | 205 | 8.7 | 0.0 | 0.00 | 0.00 | 0.00 | 43 | 1014.5 |
| 20260503050031 | 60 | 207 | 7.8 | 0.0 | 0.00 | 0.00 | 0.00 | 43 | 1014.5 |
| 20260503045532 | 60 | 195 | 7.8 | 0.0 | 0.00 | 0.00 | 0.00 | 43 | 1014.5 |
| 20260503045032 | 60 | 192 | 7.0 | 0.0 | 0.00 | 0.00 | 0.00 | 43 | 1014.5 |
| 20260503044532 | 60 | 187 | 7.0 | 0.0 | 0.00 | 0.00 | 0.00 | 42 | 1014.5 |
| 20260503044031 | 60 | 195 | 7.0 | 0.0 | 0.00 | 0.00 | 0.00 | 42 | 1014.5 |
| 20260503043531 | 60 | 197 | 7.8 | 0.0 | 0.00 | 0.00 | 0.00 | 41 | 1014.5 |
| 20260503043031 | 60 | 190 | 7.8 | 0.0 | 0.00 | 0.00 | 0.00 | 41 | 1014.5 |
| 20260503042532 | 60 | 192 | 8.7 | 0.0 | 0.00 | 0.00 | 0.00 | 40 | 1014.4 |
| 20260503042031 | 60 | 195 | 8.7 | 0.0 | 0.00 | 0.00 | 0.00 | 40 | 1014.4 |
| 20260503041532 | 60 | 207 | 7.8 | 0.0 | 0.00 | 0.00 | 0.00 | 40 | 1014.4 |
| 20260503041031 | 60 | 205 | 9.6 | 0.0 | 0.00 | 0.00 | 0.00 | 40 | 1014.4 |
| 20260503040532 | 60 | 205 | 7.8 | 0.0 | 0.00 | 0.00 | 0.00 | 40 | 1014.4 |
| 20260503040032 | 60 | 202 | 9.6 | 0.0 | 0.00 | 0.00 | 0.00 | 40 | 1014.4 |
| 20260503035532 | 60 | 195 | 8.7 | 0.0 | 0.00 | 0.00 | 0.00 | 40 | 1014.5 |
| 20260503035031 | 60 | 195 | 9.6 | 0.0 | 0.00 | 0.00 | 0.00 | 40 | 1014.4 |
| 20260503034532 | 59 | 200 | 9.6 | 0.0 | 0.00 | 0.00 | 0.00 | 41 | 1014.4 |
| 20260503034031 | 59 | 210 | 7.8 | 0.0 | 0.00 | 0.00 | 0.00 | 41 | 1014.4 |
| 20260503033532 | 59 | 200 | 8.7 | 0.0 | 0.00 | 0.00 | 0.00 | 41 | 1014.5 |
| 20260503033032 | 59 | 205 | 9.6 | 0.0 | 0.00 | 0.00 | 0.00 | 41 | 1014.5 |
| 20260503032531 | 58 | 205 | 8.7 | 0.0 | 0.00 | 0.00 | 0.00 | 42 | 1014.6 |
| 20260503032031 | 58 | 210 | 8.7 | 0.0 | 0.00 | 0.00 | 0.00 | 42 | 1014.6 |
| 20260503031532 | 58 | 207 | 8.7 | 0.0 | 0.00 | 0.00 | 0.00 | 42 | 1014.5 |
| 20260503031032 | 57 | 190 | 7.8 | 0.0 | 0.00 | 0.00 | 0.00 | 43 | 1014.5 |
| 20260503030531 | 57 | 197 | 7.0 | 0.0 | 0.00 | 0.00 | 0.00 | 44 | 1014.6 |
| 20260503030032 | 57 | 190 | 6.1 | 0.0 | 0.00 | 0.00 | 0.00 | 44 | 1014.6 |
| 20260503025531 | 57 | 192 | 7.0 | 0.0 | 0.00 | 0.00 | 0.00 | 43 | 1014.6 |
| 20260503025031 | 57 | 185 | 7.0 | 0.0 | 0.00 | 0.00 | 0.00 | 43 | 1014.7 |
| 20260503024532 | 57 | 187 | 7.0 | 0.0 | 0.00 | 0.00 | 0.00 | 43 | 1014.7 |
| 20260503024031 | 58 | 185 | 7.8 | 0.0 | 0.00 | 0.00 | 0.00 | 42 | 1014.8 |
| 20260503023531 | 58 | 192 | 7.8 | 0.0 | 0.00 | 0.00 | 0.00 | 42 | 1014.8 |
| 20260503023031 | 58 | 192 | 7.0 | 0.0 | 0.00 | 0.00 | 0.00 | 41 | 1014.8 |
| 20260503022531 | 59 | 197 | 8.7 | 0.0 | 0.00 | 0.00 | 0.00 | 40 | 1014.8 |
| 20260503022031 | 60 | 187 | 8.7 | 0.0 | 0.00 | 0.00 | 0.00 | 39 | 1014.8 |
| 20260503021531 | 60 | 180 | 10.4 | 0.0 | 0.00 | 0.00 | 0.00 | 39 | 1014.9 |
| 20260503021032 | 60 | 185 | 9.6 | 0.0 | 0.00 | 0.00 | 0.00 | 39 | 1014.9 |
| 20260503020531 | 60 | 182 | 9.6 | 0.0 | 0.00 | 0.00 | 0.00 | 39 | 1014.8 |
| 20260503020032 | 59 | 187 | 8.7 | 0.0 | 0.00 | 0.00 | 0.00 | 40 | 1014.9 |
| 20260503015531 | 58 | 185 | 8.7 | 0.0 | 0.00 | 0.00 | 0.00 | 41 | 1015.0 |
| 20260503015031 | 58 | 190 | 8.7 | 0.0 | 0.00 | 0.00 | 0.00 | 41 | 1015.0 |
| 20260503014532 | 58 | 187 | 7.8 | 0.0 | 0.00 | 0.00 | 0.00 | 42 | 1015.0 |
| 20260503014031 | 58 | 192 | 7.8 | 0.0 | 0.00 | 0.00 | 0.00 | 41 | 1015.0 |
| 20260503013531 | 58 | 192 | 8.7 | 0.0 | 0.00 | 0.00 | 0.00 | 41 | 1015.0 |
| 20260503013031 | 59 | 195 | 7.8 | 0.0 | 0.00 | 0.00 | 0.00 | 41 | 1015.1 |
| 20260503012532 | 59 | 200 | 7.8 | 0.0 | 0.00 | 0.00 | 0.00 | 40 | 1015.1 |